PSLV R/B (47257 NORAD) Tracking and Keplerian Element Data

This shows tracking and keplerian element data for the satellite.

Feedback or suggestion? Click here.




ElementValue
Catalog47257
NamePSLV R/B
Epoch Orbit117
Epoch Day15.98028647
Epoch Year2021
RAAN165.9688
Inclination17.8244
Eccentricity0.6079573
Argument of Perigee221.2765
Mean Anonmoly71.7525
Mean Motion3.93360531
Decay Rate1.548E-05
L11 47257U 20099B 21015.98028647 .00001548 00000-0 26510-3 0 9993
L22 47257 17.8244 165.9688 6079573 221.2765 71.7525 3.93360531 1177

Live tracking and technical data element details for PSLV R/B (NORAD 47257). PSLV R/B can be tracked NOW for your location showing map with azimuth and elevation plus other details from your city location.

Track the satellite on the map from your city or location and see movement details for azimuth, elevation, latitude, longitude, range, height, and movement on the map or in text.







IsCatalogInMostPopularTable: catalog: 47257, numindb: 23
Update: records affected: 1



GetName: 47257 PSLV R/B

Hit Count: updated at: Fri, 05 Mar 2021 06:39:39 GMT